Regional Weather Roundup
Issued by NWS Lake Charles, LA

Home | Current Version | Previous Version | Text Only | Print | Product List | Glossary On
Versions: 1 2 3 4 5 6 7 8 9 10 11 12 13 14 15 16 17 18 19 20 21 22 23 24 25 26 27
000
ASUS44 KLCH 230610
RWRLCH
RWRLCH
REGIONAL WEATHER ROUNDUP
NATIONAL WEATHER SERVICE LAKE CHARLES LA
100 AM CDT WED APR 23 2014

Note: "fair" indicates few or no clouds below 12,000 feet with no
significant weather and/or obstructions to visibility.


ACROSS SOUTHEAST TEXAS

CITY           SKY/WX    TMP DP  RH WIND       PRES   REMARKS
BEAUMONT       FOG       66  65  96 SW5       29.94S VSB 1/4
BEAUMONT CITY  FOG       65  65 100 CALM      29.95S VSB 3/4
ORANGE         FOG       64  64 100 CALM      29.96R VSB<1/4
JASPER           N/A     60  58  95 CALM      29.98S
$$

ACROSS CENTRAL LOUISIANA

CITY           SKY/WX    TMP DP  RH WIND       PRES   REMARKS
LEESVILLE        N/A     61  58  90 CALM      29.95S
FULLERTON        N/A     62  58  86 CALM      29.93S
ALEXANDRIA INT   N/A     61  60  97 CALM      29.94S
ESLER FIELD      N/A     59  57  93 CALM      29.95S FOG
DERIDDER         N/A     62  60  93 CALM      29.97S
OAKDALE          N/A     58  56  94 CALM      29.96R FOG
OPELOUSAS        N/A     59  58  99 CALM      29.95S FOG
$$

ACROSS SOUTHWEST AND SOUTH CENTRAL LOUISIANA

CITY           SKY/WX    TMP DP  RH WIND       PRES   REMARKS
SULPHUR        FOG       64  64  99 CALM      29.96R VSB 1/4
LAKE CHARLES     N/A     63  62  97 CALM      29.94S FOG
CHENNAULT INT  FOG       65  65 100 CALM      29.96S VSB<1/4
CAMERON PHI      N/A     70  68  94 CALM      29.96R FOG
DEQUINCY         N/A     60  59  97 CALM      29.95S
JENNINGS         N/A     65  64  96 CALM      29.95S
LAFAYETTE        N/A     64  62  93 CALM      29.95S
NEW IBERIA       N/A     63  60  90 CALM      29.95S
ABBEVILLE        N/A    N/A N/A N/A CALM      29.95S FOG
PATTERSON        N/A     63  61  94 CALM      29.98S VSB 1/4
SALT POINT       N/A     70  67  90 CALM      29.94S
$$

SELECTED SITES ACROSS THE REGION

CITY           SKY/WX    TMP DP  RH WIND       PRES   REMARKS
HOUSTON BUSH     N/A     70  67  90 S3        29.95R
HOUSTON HOBBY    N/A     68  66  93 S3        29.95S
GALVESTON        N/A     70  69  97 SW6       29.96S
COLLEGE STAT     N/A     68  60  75 CALM      29.95S
CONROE           N/A     60  58  92 CALM      29.96R
HUNTSVILLE       N/A     63  60  90 CALM      29.96R
LUFKIN           N/A     64  60  87 CALM      29.95S
SHREVEPORT       N/A     62  59  90 CALM      29.94S
MONROE           N/A     60  58  92 CALM      29.96S FOG
NATCHEZ MS       N/A     57  55  94 CALM      29.96S
BATON ROUGE      N/A     62  59  90 CALM      29.94F
N.O. INTL ARPT   N/A     67  64  90 CALM      29.93S
SLIDELL          N/A     61  58  90 CALM      29.92S
$$

MARINE REPORTS

STATION/POSITION TIME  TEMP    WIND        PRES    VSBY  WAVE
                       AIR SEA DIR/SP/G                  HT/PER
                 (UTC) (F)     (DEG/KT/KT) (MB)    (MI)  (FT/S)
BUOY 30 S HIGH I 0600   70 70  230/ 10/ 12 1013.8R         1/ 5
SEA RIM ST PARK  0600   68     260/  5/  6 1014.6R
PORT ARTHUR      0600      70  220/  5/  5 1014.1R
SABINE PASS N    0600   68 71  260/  2/  4 1014.0R
TEXAS POINT      0600   68 71  270/  4/  4 1014.3S
CALCASIEU PASS   0600   69 72   CALM  /  2 1015.2R
LK CHARLES BEACH 0600   69 74              1014.7R
MARSH ISLAND     0500   71     310/  4/  7   N/A
FRESH WATER LOCK 0600   67 74  280/  4/  5 1014.0S
AMERADA PASS     0600   67 65  270/  3/  6 1013.9S
$$



USA.gov is the U.S. government's official web portal to all federal, state and local government web resources and services.